Location: Kaltenbach
(49.2000°N, 7.7500°E)
Time: 21:45:23
(UTC+00:00)

Okean O Rocket - Pass Details

Date: 24 January 2020
Orbit: 623 x 645 km, 98.2° (Epoch: 17 February)

Event Time Altitude Azimuth Distance (km) Brightness Sun altitude
Rises 16:57:39 0° 192° (SSW) 2,933 5.5 -7.6°
Reaches altitude 10° 17:00:04 10° 203° (SSW) 2,032 4.9 -8.0°
Maximum altitude 17:03:58 30° 265° (W) 1,164 3.9 -8.6°
Drops below altitude 10° 17:07:55 10° 326° (NNW) 2,053 4.4 -9.2°
Sets 17:10:22 0° 338° (NNW) 2,969 5.1 -9.6°
